This is the latest recevied weather packets stored in our database for station/object W1HS. If no packets are shown the sender has not sent any weather packets the latest 10 day(s).
| Time | Temp. | Humidity | Pressure | Rain* | Wind** | Luminosity | Snow |
|---|---|---|---|---|---|---|---|
| 1777725499 | 6.11° C | 95% | 991.5 hPa | 0 mm | - | 155 W/m² | - |
| 1777724899 | 6.11° C | 95% | 991.6 hPa | 0 mm | - | 149 W/m² | - |
| 1777724299 | 6.11° C | 95% | 991.6 hPa | 0 mm | - | 97 W/m² | - |
| 1777723699 | 6.11° C | 95% | 991.6 hPa | 0 mm | - | 81 W/m² | - |
| 1777723099 | 5.56° C | 95% | 991.6 hPa | 0 mm | - | 88 W/m² | - |
| 1777722499 | 5.56° C | 94% | 991.6 hPa | 0 mm | - | 102 W/m² | - |
| 1777721899 | 5.56° C | 94% | 991.7 hPa | 0 mm | - | 42 W/m² | - |
| 1777721299 | 5.56° C | 94% | 991.7 hPa | 0 mm | - | 54 W/m² | - |
| 1777720701 | 5.56° C | 94% | 991.8 hPa | 0 mm | - | 33 W/m² | - |
| 1777720099 | 5.56° C | 94% | 991.8 hPa | 0 mm | - | 28 W/m² | - |
| 1777719499 | 5.56° C | 94% | 991.7 hPa | 0 mm | - | 16 W/m² | - |
| 1777718899 | 5.56° C | 94% | 991.4 hPa | 0 mm | - | 14 W/m² | - |
| 1777718299 | 5° C | 94% | 991.3 hPa | 0 mm | - | 16 W/m² | - |
| 1777717699 | 5° C | 94% | 991.2 hPa | 0 mm | - | 14 W/m² | - |
| 1777717099 | 5° C | 94% | 991.1 hPa | 0 mm | - | 15 W/m² | - |
| 1777716499 | 5° C | 94% | 991.1 hPa | 0 mm | - | 7 W/m² | - |
| 1777715899 | 5° C | 94% | 991.1 hPa | 0 mm | - | 5 W/m² | - |
| 1777715299 | 5° C | 93% | 991.4 hPa | 0 mm | - | 0 W/m² | - |
| 1777714699 | 5° C | 93% | 991.5 hPa | 0.25 mm | - | 0 W/m² | - |
| 1777714099 | 5° C | 94% | 991.8 hPa | 0.51 mm | - | 0 W/m² | - |
| 1777713499 | 5° C | 93% | 991.5 hPa | 1.02 mm | - | 0 W/m² | - |
| 1777712899 | 5° C | 93% | 991.4 hPa | 1.27 mm | - | 0 W/m² | - |
| 1777712299 | 5° C | 93% | 991.3 hPa | 1.27 mm | - | 0 W/m² | - |
| 1777711699 | 5° C | 93% | 991.5 hPa | 1.27 mm | - | 0 W/m² | - |
| 1777711099 | 5° C | 93% | 991.6 hPa | 1.02 mm | - | 0 W/m² | - |
* Rain latest hour (hover to see other rain measurements)
** Current wind speed in m/s (hover to see current wind gust speed)